{"data":{"norad_id":81015,"intl_designator":"","name":"UNKNOWN","alt_names":[],"object_type":"UNKNOWN","status":"UNKNOWN","operator":null,"country":null,"launch_date":null,"launch_site_code":null,"launch_vehicle":null,"mission":null,"orbit_class":"UNKNOWN","rcs_meters":null,"size_class":null,"mass_kg":null,"dimensions":null,"purposes":[],"wikipedia_slug":null,"has_3d_model":false,"image_url":null,"decayed_at":null,"tle_current":{"epoch":"2026-05-24T23:37:06.398112Z","epoch_age_seconds":73476,"freshness":"FRESH","line1":"1 81015U          26144.98410183  .00002084  00000+0  11493-2 0  9999","line2":"2 81015  99.3618 165.8336 0135452  59.1786   4.9806 14.08110830  5649","mean_motion":14.0811083,"eccentricity":0.0135452,"inclination_deg":99.3618,"raan_deg":165.8336,"arg_perigee_deg":59.1786,"mean_anomaly_deg":4.9806,"bstar":0.0011493,"rev_number":564,"period_min":102.26467756093,"perigee_km":767.72249328704,"apogee_km":963.96482696208,"semimajor_km":7243.9806601246,"source":"CELESTRAK","updated_at":"2026-05-25T13:38:09.441720Z"}}}